CAPE
1302 1208 1280 1480 1293 1259 1138 1143 1111 910 719 652 653 598 614 968 979 1232 1427 1175 1250 1064
1402 1381 1285 1438 1664 1343 1485 1374 1384 1432 1274 1227 1191 1148 898 1026 1260 1283 1164 1105 1028 736
1128 1137 1219 1338 1387 1423 1654 1663 1662 1808 1815 1753 1696 1550 1554 1302 1326 1240 1042 952 857 692
1082 1007 1161 1431 1522 1576 1685 1833 1838 2009 2020 1794 1432 1393 1560 1642 1452 1209 1006 948 1235 794
917 1080 1324 1581 1595 1716 1841 1995 2041 2040 2004 1783 1417 1507 1634 1491 1446 1140 1019 1074 880 913
1050 1200 1440 1584 1679 1866 2087 2158 2039 1977 1796 1362 1147 1379 1558 1521 1523 1145 1083 829 637 473
974 1106 1437 1488 1821 2083 2099 1989 1709 1577 1415 1197 1224 1505 1264 976 767 787 278 501 391 283
663 982 1268 1775 1959 1846 1651 1326 1126 1115 966 1049 1313 1073 831 542 294 197 178 173 295 385
657 955 1159 1248 1135 677 437 536 488 678 983 1166 1064 757 390 187 148 267 182 109 182 186
531 599 642 663 633 452 227 480 718 861 797 286 597 308 165 114 146 70 50 16 8 7
350 491 433 645 459 348 414 666 673 266 250 528 194 136 105 109 74 17 27 8 27 132
322 322 220 230 227 209 423 437 260 383 238 87 34 91 112 91 0 2 58 18 18 13
493 191 287 245 114 158 205 157 319 154 123 108 8 0 22 12 3 6 41 49 57 0
344 433 216 295 341 203 138 173 269 128 138 93 45 5 1 2 2 0 0 0 0 0
CIN
-337 -297 -280 -232 -228 -262 -280 -282 -277 -297 -300 -306 -275 -265 -228 -117 -84 -21 -3 -6 -0 -0
-316 -326 -304 -274 -240 -253 -239 -231 -231 -214 -212 -185 -156 -134 -163 -117 -49 -19 -9 -7 -1 -2
-342 -359 -369 -312 -277 -258 -222 -199 -185 -158 -132 -98 -68 -60 -45 -50 -18 -14 -23 -17 -13 -24
-325 -379 -382 -315 -277 -250 -208 -172 -160 -135 -108 -98 -111 -83 -37 -8 -6 -10 -22 -26 -1 -20
-381 -368 -332 -290 -268 -225 -182 -146 -135 -120 -106 -100 -117 -71 -30 -16 -11 -20 -24 -10 -15 -7
-369 -332 -302 -267 -234 -179 -136 -122 -127 -124 -134 -165 -165 -95 -43 -27 -9 -27 -16 -26 -31 -36
-348 -316 -263 -240 -175 -141 -136 -144 -181 -186 -176 -174 -127 -71 -72 -84 -86 -61 -131 -59 -54 -60
-367 -279 -218 -153 -137 -158 -192 -231 -245 -224 -220 -156 -106 -112 -118 -111 -178 -167 -148 -130 -77 -46
-298 -256 -233 -209 -204 -334 -401 -353 -343 -271 -200 -137 -130 -137 -159 -220 -200 -128 -139 -146 -88 -69
-272 -283 -301 -295 -295 -377 -441 -353 -276 -209 -186 -249 -171 -201 -230 -233 -202 -217 -190 -197 -26 -102
-234 -252 -282 -258 -318 -380 -354 -276 -252 -284 -289 -186 -235 -209 -194 -172 -219 -249 -193 -207 -153 -62
-256 -125 -128 -388 -388 -348 -268 -297 -348 -263 -277 -305 -234 -177 -168 -189 -59 -55 -154 -206 -133 -129
-173 -314 -170 -85 -373 -336 -290 -338 -254 -299 -305 -287 -334 -25 -233 -301 -372 -336 -179 -127 -84 -0
-190 -215 -316 -221 -109 -65 -292 -254 -211 -266 -241 -276 -267 -226 -60 -28 -0 -0 -0 -0 -12 -0
Wind_Speed
27 32 35 37 41 42 42 41 41 42 37 36 35 33 31 32 33 32 31 29 29 30
31 30 34 36 42 46 43 43 44 44 42 40 39 38 36 36 35 36 35 33 33 33
28 31 36 40 41 42 43 42 46 46 44 43 41 41 40 39 38 39 39 38 38 38
30 32 38 35 38 41 41 42 47 49 47 46 44 44 44 42 43 42 41 43 42 41
32 36 38 35 36 43 44 41 47 50 51 49 47 46 44 45 47 46 44 44 44 44
38 40 42 40 41 43 45 46 47 52 53 51 49 47 47 47 49 47 46 46 47 47
42 43 42 43 43 46 47 50 51 52 51 50 51 50 52 53 54 52 52 54 54 54
45 45 45 46 47 51 51 52 55 56 56 56 55 56 57 57 58 59 60 59 57 56
50 51 51 49 51 54 54 56 57 56 59 60 62 66 67 63 59 60 62 61 60 61
53 53 52 53 51 54 58 62 62 62 63 66 67 67 64 66 62 nan nan nan nan nan
51 54 53 52 53 59 64 65 66 68 67 68 67 70 70 70 nan nan nan nan nan 72
49 51 55 54 57 63 64 70 71 71 72 nan nan nan 75 nan nan nan nan nan nan nan
53 52 56 63 64 71 72 77 80 79 76 81 nan nan nan nan nan nan nan nan nan nan
63 61 63 70 76 79 79 82 80 79 79 nan nan nan nan nan nan nan nan nan nan nan
Wind_Direction
280 263 265 269 271 272 275 278 283 290 295 300 301 300 300 296 301 308 310 318 313 309
269 268 264 269 270 269 273 275 281 287 291 294 297 297 297 293 299 301 301 304 308 308
261 260 263 264 270 272 271 274 278 283 286 288 290 291 290 288 290 292 292 296 302 304
256 256 262 265 270 274 275 276 274 278 281 283 284 284 283 285 286 290 293 295 298 302
256 258 262 267 272 274 278 273 270 274 277 280 280 280 281 284 283 287 291 293 295 298
258 260 267 272 271 272 274 275 274 273 274 278 279 278 279 281 282 285 287 290 291 292
260 260 263 269 267 267 270 272 273 274 274 275 275 274 276 277 278 278 280 282 286 291
254 257 259 265 265 264 266 267 269 271 272 269 269 269 273 274 277 279 278 278 280 283
251 252 255 256 259 261 265 268 266 262 260 263 260 269 274 276 277 279 282 282 279 281
249 250 248 249 255 260 261 260 262 260 259 260 263 269 275 277 280 nan nan nan nan nan
240 239 239 242 248 253 258 262 263 263 263 265 266 274 276 278 nan nan nan nan nan 291
230 235 236 240 244 250 257 259 261 264 268 nan nan nan 281 nan nan nan nan nan nan nan
235 239 240 240 244 253 257 258 259 262 268 275 nan nan nan nan nan nan nan nan nan nan
235 241 243 243 251 256 259 260 258 259 264 nan nan nan nan nan nan nan nan nan nan nan